Kayseri, Turkey

2:51 PM +03 on June 26, 2017 (GMT +0300)
Erkilet Air Base

Weather History for LTAU - November, 2013

Change the Weather History Date:

Tuesday, November 19, 2013

  Actual Average Record
Temperature  
Mean Temperature 40 °F -  
Max Temperature 58 °F 45 °F 68 °F (2010)
Min Temperature 21 °F 25 °F 14 °F (2001)
Degree Days  
Heating Degree Days 26    
Moisture  
Dew Point 29 °F    
Average Humidity 74    
Maximum Humidity 100    
Minimum Humidity 28    
Precipitation  
Precipitation 0.00 in - - ()
Sea Level Pressure  
Sea Level Pressure 30.23 in    
Wind  
Wind Speed 1 mph ()    
Max Wind Speed 5 mph    
Max Gust Speed -    
Visibility 4.1 miles    
Events      
Averages and records for this station are not official NWS values.
T = Trace of Precipitation, MM = Missing Value Source: Averaged Metar Reports

Daily Weather History Graph

Daily Weather History Graph

Search for Another Location

Airport or City:

Trip Planner

Search our weather history database for the weather conditions in past years. The results will help you decide how hot, cold, wet, or windy it might be!

Date:

Astronomy

Nov. 19, 2013 Rise Set
Actual Time 6:25 AM EET 4:21 PM EET
Civil Twilight 5:56 AM EET 4:50 PM EET
Nautical Twilight 5:23 AM EET 5:23 PM EET
Astronomical Twilight 4:52 AM EET 5:54 PM EET
Moon 5:55 PM EET (11/19) 7:47 AM EET (11/19)
Length of Visible Light 10h 54m
Length of Day
9h 56m
Full, 97% of the Moon is Illuminated
Nov 19
Full
Nov 25
Last Quarter
Dec 3
New
Dec 9
First Quarter
Dec 17
Full

Hourly Weather History & Observations

Time (EET) Temp. Windchill Dew Point Humidity Pressure Visibility Wind Dir Wind Speed Gust Speed Precip Events Conditions
12:20 AM 30.2 °F - 26.6 °F 86% 30.24 in 4.3 mi Calm Calm - N/A   Unknown
12:50 AM 28.4 °F 24.6 °F 26.6 °F 93% 30.24 in 3.7 mi North 3.5 mph - N/A   Unknown
1:03 AM 26.6 °F - 24.8 °F 93% 30.24 in - NE 2.3 mph - N/A   Mist
1:20 AM 28.4 °F - 24.8 °F 86% 30.24 in 2.8 mi NNE 1.2 mph - N/A   Mist
1:50 AM 26.6 °F - 24.8 °F 93% 30.24 in - Calm Calm - N/A   Mist
2:00 AM 27 °F - 25 °F 89%  in 3 mi Calm Calm - -   Mist
2:20 AM 26.6 °F - 24.8 °F 93% 30.24 in - Calm Calm - N/A   Mist
2:50 AM 24.8 °F - 23.0 °F 93% 30.24 in - Calm Calm - N/A   Mist
3:20 AM 26.6 °F - 24.8 °F 93% 30.24 in - Calm Calm - N/A   Mist
3:50 AM 24.8 °F - 23.0 °F 93% 30.24 in - NNE 1.2 mph - N/A   Mist
4:20 AM 26.6 °F - 24.8 °F 93% 30.24 in 2.5 mi NE 1.2 mph - N/A   Mist
4:50 AM 24.8 °F - 23.0 °F 93% 30.24 in 2.2 mi Calm Calm - N/A   Mist
5:00 AM 25 °F - 23 °F 87%  in 2 mi Calm Calm - -   Mist
5:20 AM 24.8 °F - 23.0 °F 93% 30.24 in 2.8 mi Calm Calm - N/A   Mist
5:50 AM 23.0 °F - 21.2 °F 93% 30.24 in 2.8 mi Calm Calm - N/A   Mist
6:20 AM 23.0 °F - 21.2 °F 93% 30.24 in 2.5 mi NE 2.3 mph - N/A   Mist
6:50 AM 24.8 °F - 23.0 °F 93% 30.24 in - Calm Calm - N/A   Mist
7:20 AM 24.8 °F - 24.8 °F 100% 30.24 in 0.8 mi Calm Calm - N/A   Mist
7:50 AM 32.0 °F - 30.2 °F 93% 30.27 in 1.0 mi Calm Calm - N/A   Mist
8:00 AM 32 °F - 31 °F 92%  in 1 mi Calm Calm - -   Mist
8:20 AM 33.8 °F - 30.2 °F 87% 30.27 in - Calm Calm - N/A   Mist
8:50 AM 37.4 °F - 32.0 °F 81% 30.27 in - Calm Calm - N/A   Mist
9:20 AM 39.2 °F - 32.0 °F 75% 30.27 in 1.6 mi Variable 1.2 mph - N/A   Mist
9:50 AM 42.8 °F - 32.0 °F 66% 30.27 in 3.7 mi Calm Calm - N/A   Unknown
10:20 AM 46.4 °F - 33.8 °F 62% 30.27 in 5.0 mi Calm Calm - N/A   Unknown
10:50 AM 48.2 °F - 33.8 °F 58% 30.24 in 5.0 mi Variable 2.3 mph - N/A   Unknown
11:00 AM 48 °F - 34 °F 47%  in 5 mi North 1.2 mph - -   Haze
11:20 AM 51.8 °F - 35.6 °F 54% 30.24 in 5.0 mi Variable 2.3 mph - N/A   Unknown
11:50 AM 53.6 °F - 33.8 °F 47% 30.21 in 5.0 mi Variable 2.3 mph - N/A   Unknown
12:20 PM 53.6 °F - 33.8 °F 47% 30.21 in 5.6 mi Variable 2.3 mph - N/A   Unknown
12:50 PM 55.4 °F - 33.8 °F 44% 30.18 in - Variable 2.3 mph - N/A   Clear
1:20 PM 57.2 °F - 33.8 °F 41% 30.18 in - Calm Calm - N/A   Clear
1:50 PM 57.2 °F - 33.8 °F 41% 30.18 in - Variable 1.2 mph - N/A   Clear
2:00 PM 58 °F - 34 °F 28%  in 12 mi SW 1.2 mph - -  
2:20 PM 57.2 °F - 33.8 °F 41% 30.18 in - Variable 2.3 mph - N/A   Clear
2:50 PM 57.2 °F - 33.8 °F 41% 30.18 in - Variable 1.2 mph - N/A   Clear
3:20 PM 57.2 °F - 33.8 °F 41% 30.18 in - Variable 2.3 mph - N/A   Clear
3:50 PM 53.6 °F - 33.8 °F 47% 30.18 in - WSW 2.3 mph - N/A   Clear
4:20 PM 48.2 °F - 32.0 °F 54% 30.18 in 4.3 mi WSW 4.6 mph - N/A   Unknown
4:50 PM 44.6 °F - 33.8 °F 66% 30.18 in 4.3 mi Calm Calm - N/A   Unknown
5:00 PM 45 °F - 33 °F 52%  in 4 mi Calm Calm - -   Haze
5:20 PM 42.8 °F - 33.8 °F 70% 30.21 in 5.0 mi Calm Calm - N/A   Unknown
5:50 PM 42.8 °F - 33.8 °F 70% 30.21 in 3.7 mi Calm Calm - N/A   Unknown
6:20 PM 41.0 °F - 32.0 °F 70% 30.21 in - Calm Calm - N/A   Clear
6:50 PM 37.4 °F - 30.2 °F 75% 30.21 in 3.7 mi Calm Calm - N/A   Unknown
7:20 PM 37.4 °F - 32.0 °F 81% 30.21 in 3.7 mi NNE 1.2 mph - N/A   Unknown
7:50 PM 37.4 °F - 30.2 °F 75% 30.24 in 5.0 mi Variable 2.3 mph - N/A   Unknown
8:00 PM 36 °F - 31 °F 76%  in 5 mi NE 2.3 mph - -   Mist
8:20 PM 35.6 °F 32.8 °F 28.4 °F 75% 30.24 in - North 3.5 mph - N/A   Clear
8:50 PM 33.8 °F 29.6 °F 28.4 °F 81% 30.24 in - NE 4.6 mph - N/A   Clear
9:20 PM 32.0 °F - 28.4 °F 87% 30.24 in - Calm Calm - N/A   Clear
9:50 PM 32.0 °F - 28.4 °F 87% 30.24 in - NE 2.3 mph - N/A   Clear
10:20 PM 35.6 °F 31.7 °F 28.4 °F 75% 30.24 in - North 4.6 mph - N/A   Clear
10:50 PM 30.2 °F - 24.8 °F 80% 30.24 in - NE 1.2 mph - N/A   Clear
11:00 PM 29 °F - 26 °F 81%  in 12 mi NE 1.2 mph - -  
11:20 PM 28.4 °F - 26.6 °F 93% 30.24 in - ENE 1.2 mph - N/A   Clear
11:50 PM 28.4 °F - 26.6 °F 93% 30.21 in - Calm Calm - N/A   Clear